TimeEST,TemperatureF,Dew PointF,Humidity,Sea Level PressureIn,VisibilityMPH,Wind Direction,Wind SpeedMPH,Gust SpeedMPH,PrecipitationIn,Events,Conditions,WindDirDegrees,DateUTC
12:53 AM,34.0,33.1,96,30.00,3.0,East,6.9,-,0.00,,Overcast,100,2012-01-26 05:53:00
1:53 AM,35.1,33.1,92,29.97,3.0,ENE,4.6,-,0.00,Rain,Light Rain,60,2012-01-26 06:53:00
2:07 AM,35.6,33.8,93,29.96,2.5,NE,3.5,-,0.02,Rain,Rain,40,2012-01-26 07:07:00
2:16 AM,35.6,33.8,93,29.95,2.5,NE,5.8,-,0.03,Rain,Rain,50,2012-01-26 07:16:00
2:29 AM,35.6,33.8,93,29.94,3.0,NE,5.8,-,0.03,Rain,Light Rain,40,2012-01-26 07:29:00
2:53 AM,35.1,34.0,96,29.95,2.5,ENE,5.8,-,0.05,Rain,Light Rain,70,2012-01-26 07:53:00
3:02 AM,35.6,33.8,93,29.92,2.5,ENE,5.8,-,0.00,Rain,Light Rain,60,2012-01-26 08:02:00
3:39 AM,35.6,33.8,93,29.91,2.5,NNE,3.5,-,0.08,Rain,Rain,20,2012-01-26 08:39:00
3:53 AM,36.0,34.0,93,29.92,2.0,ENE,5.8,-,0.14,Rain,Rain,70,2012-01-26 08:53:00
4:53 AM,36.0,34.0,93,29.87,2.0,ENE,6.9,-,0.24,Rain,Heavy Rain,70,2012-01-26 09:53:00
5:24 AM,37.4,35.6,93,29.85,2.5,East,5.8,-,0.02,Rain,Light Rain,80,2012-01-26 10:24:00
5:35 AM,35.6,35.6,100,29.85,3.0,East,5.8,-,0.02,Rain,Light Rain,100,2012-01-26 10:35:00
5:53 AM,37.0,35.1,93,29.87,4.0,NE,5.8,-,0.02,Rain,Light Rain,40,2012-01-26 10:53:00
6:36 AM,37.4,35.6,93,29.82,4.0,SE,11.5,-,0.01,Rain,Rain,130,2012-01-26 11:36:00
6:53 AM,37.9,37.0,97,29.84,5.0,SE,8.1,-,0.01,Rain,Light Rain,140,2012-01-26 11:53:00
7:04 AM,37.4,37.4,100,29.82,2.5,SE,12.7,-,0.04,Rain,Rain,130,2012-01-26 12:04:00
7:21 AM,37.4,37.4,100,29.80,3.0,ESE,12.7,-,0.07,Rain,Light Rain,110,2012-01-26 12:21:00
7:33 AM,37.4,37.4,100,29.81,3.0,ESE,6.9,-,0.08,Rain,Light Rain,120,2012-01-26 12:33:00
7:49 AM,39.2,39.2,100,29.81,5.0,ESE,5.8,-,0.08,Rain,Light Rain,110,2012-01-26 12:49:00
7:53 AM,39.0,39.0,100,29.83,6.0,ESE,5.8,-,0.08,,Overcast,110,2012-01-26 12:53:00
8:48 AM,37.4,37.4,100,29.78,2.0,ESE,3.5,-,0.00,,Overcast,120,2012-01-26 13:48:00
8:53 AM,37.9,37.9,100,29.81,1.8,SE,3.5,-,0.00,,Overcast,140,2012-01-26 13:53:00
9:53 AM,37.9,37.9,100,29.79,1.2,ESE,3.5,-,0.00,,Overcast,120,2012-01-26 14:53:00
10:24 AM,37.4,37.4,100,29.77,0.8,SE,3.5,-,N/A,,Overcast,130,2012-01-26 15:24:00
10:53 AM,37.9,37.9,100,29.78,0.5,SE,4.6,-,N/A,Fog,Fog,130,2012-01-26 15:53:00
11:06 AM,39.2,37.4,93,29.75,0.2,SE,4.6,-,N/A,Fog,Fog,130,2012-01-26 16:06:00
11:53 AM,39.9,39.0,97,29.75,0.2,Calm,Calm,-,N/A,Fog,Fog,0,2012-01-26 16:53:00
12:53 PM,41.0,39.9,96,29.73,0.2,SSW,4.6,-,N/A,Fog,Fog,200,2012-01-26 17:53:00
1:42 PM,41.0,41.0,100,29.68,0.5,SW,6.9,-,N/A,Fog,Fog,230,2012-01-26 18:42:00
1:53 PM,41.0,41.0,100,29.70,1.2,West,6.9,-,N/A,,Overcast,260,2012-01-26 18:53:00
2:01 PM,41.0,41.0,100,29.68,0.8,WSW,10.4,-,N/A,,Overcast,240,2012-01-26 19:01:00
2:53 PM,41.0,39.9,96,29.68,0.8,West,6.9,-,N/A,,Overcast,260,2012-01-26 19:53:00
3:00 PM,39.2,39.2,100,29.65,1.0,West,5.8,-,N/A,,Overcast,270,2012-01-26 20:00:00
3:53 PM,39.9,39.0,97,29.67,1.0,WSW,5.8,-,N/A,,Overcast,240,2012-01-26 20:53:00
4:11 PM,39.2,39.2,100,29.64,0.5,WSW,6.9,-,N/A,Fog,Fog,240,2012-01-26 21:11:00
4:53 PM,39.9,39.0,97,29.65,0.5,SW,6.9,-,N/A,Fog,Fog,230,2012-01-26 21:53:00
5:24 PM,39.2,39.2,100,29.63,1.2,West,5.8,-,0.00,Rain,Light Rain,270,2012-01-26 22:24:00
5:37 PM,39.2,39.2,100,29.62,2.5,WNW,6.9,-,0.00,Rain,Light Rain,290,2012-01-26 22:37:00
5:53 PM,39.0,37.9,96,29.62,2.5,Variable,4.6,-,0.00,,Overcast,0,2012-01-26 22:53:00
6:00 PM,39.2,37.4,93,29.60,3.0,West,5.8,-,N/A,,Overcast,280,2012-01-26 23:00:00
6:53 PM,37.9,37.0,97,29.64,8.0,WNW,6.9,-,0.00,,Overcast,290,2012-01-26 23:53:00
7:53 PM,37.0,36.0,96,29.60,2.5,NW,4.6,-,N/A,,Overcast,310,2012-01-27 00:53:00
8:10 PM,37.4,35.6,93,29.58,5.0,Variable,5.8,-,0.00,Rain,Light Rain,0,2012-01-27 01:10:00
8:53 PM,37.0,35.1,93,29.60,9.0,WNW,5.8,-,0.00,,Overcast,300,2012-01-27 01:53:00
9:53 PM,36.0,34.0,93,29.62,10.0,WNW,10.4,-,N/A,,Overcast,300,2012-01-27 02:53:00
10:53 PM,35.1,34.0,96,29.64,10.0,WNW,6.9,-,0.00,Rain,Light Rain,290,2012-01-27 03:53:00
11:53 PM,35.1,33.1,92,29.65,6.0,West,5.8,-,0.00,Rain,Light Rain,280,2012-01-27 04:53:00